Oakland, CA

12:06 PM PST on December 05, 2019 (GMT -0800)
Metro Oakland International

Weather History for KOAK - October, 2019

Change the Weather History Date:

Monday, October 21, 2019

  Actual Average Record
Temperature  
Mean Temperature 66 °F 60 °F  
Max Temperature 82 °F 69 °F 85 °F (1998)
Min Temperature 49 °F 51 °F 37 °F (1996)
Degree Days  
Heating Degree Days 0 5  
Month to date heating degree days 90 87  
Since 1 July heating degree days 120 287  
Cooling Degree Days 1 0  
Month to date cooling degree days 10 12  
Year to date cooling degree days 374 137  
Growing Degree Days 14 (Base 50)    
Moisture  
Dew Point 52 °F    
Average Humidity 65    
Maximum Humidity 93    
Minimum Humidity 37    
Precipitation  
Precipitation 0.00 in 0.04 in 0.13 in (1985)
Month to date precipitation T 0.62  
Year to date precipitation 15.94 14.12  
Sea Level Pressure  
Sea Level Pressure 30.15 in    
Wind  
Wind Speed 3 mph (WSW)    
Max Wind Speed 9 mph    
Max Gust Speed 12 mph    
Visibility 10 miles    
Events      
T = Trace of Precipitation, MM = Missing Value Source: NWS Daily Summary

Daily Weather History Graph

Daily Weather History Graph

Search for Another Location

Airport or City:

Astronomy

Oct. 21, 2019 Rise Set
Actual Time 7:22 AM PDT 6:23 PM PDT
Civil Twilight 6:56 AM PDT 6:50 PM PDT
Nautical Twilight 6:25 AM PDT 7:20 PM PDT
Astronomical Twilight 5:55 AM PDT 7:51 PM PDT
Moon No Moon Rise 2:41 PM PDT (10/21)
Length of Visible Light 11h 53m
Length of Day
11h 00m
Waning Gibbous, 47% of the Moon is Illuminated
Oct 21
Waning Gibbous
Oct 27
New
Nov 4
First Quarter
Nov 12
Full
Nov 19
Last Quarter

Hourly Weather History & Observations

Time (PDT) Temp. Dew Point Humidity Pressure Visibility Wind Dir Wind Speed Gust Speed Precip Events Conditions
12:53 AM 55.9 °F 50.0 °F 80% 30.13 in 10.0 mi ESE 5.8 mph - N/A   Clear
1:53 AM 55.0 °F 50.0 °F 83% 30.13 in 10.0 mi East 3.5 mph - N/A   Clear
2:53 AM 55.9 °F 51.1 °F 84% 30.14 in 10.0 mi Calm Calm - N/A   Clear
3:53 AM 54.0 °F 50.0 °F 86% 30.14 in 10.0 mi NNE 4.6 mph - N/A   Clear
4:53 AM 50.0 °F 48.0 °F 93% 30.14 in 10.0 mi Calm Calm - N/A   Clear
5:53 AM 51.1 °F 46.9 °F 86% 30.15 in 10.0 mi ENE 3.5 mph - N/A   Clear
6:53 AM 51.1 °F 48.0 °F 89% 30.16 in 10.0 mi East 3.5 mph - N/A   Clear
7:53 AM 53.1 °F 48.9 °F 86% 30.17 in 10.0 mi ENE 3.5 mph - N/A   Clear
8:53 AM 61.0 °F 53.1 °F 75% 30.19 in 10.0 mi Calm Calm - N/A   Clear
9:53 AM 63.0 °F 54.0 °F 72% 30.19 in 10.0 mi West 3.5 mph - N/A   Clear
10:53 AM 64.9 °F 55.9 °F 73% 30.19 in 10.0 mi SW 5.8 mph - N/A   Clear
11:53 AM 66.0 °F 55.9 °F 70% 30.19 in 10.0 mi SSW 5.8 mph - N/A   Clear
12:53 PM 70.0 °F 55.0 °F 59% 30.16 in 10.0 mi West 4.6 mph - N/A   Clear
1:53 PM 75.0 °F 50.0 °F 41% 30.14 in 10.0 mi West 5.8 mph - N/A   Clear
2:53 PM 78.1 °F 50.0 °F 37% 30.12 in 10.0 mi WSW 4.6 mph - N/A   Clear
3:53 PM 75.9 °F 51.1 °F 42% 30.12 in 10.0 mi SW 6.9 mph - N/A   Partly Cloudy
4:53 PM 78.1 °F 52.0 °F 40% 30.11 in 10.0 mi Calm Calm - N/A   Partly Cloudy
5:53 PM 75.9 °F 51.1 °F 42% 30.10 in 10.0 mi West 4.6 mph - N/A   Partly Cloudy
6:53 PM 71.1 °F 52.0 °F 51% 30.12 in 10.0 mi Calm Calm - N/A   Partly Cloudy
7:53 PM 66.9 °F 55.0 °F 66% 30.13 in 10.0 mi Calm Calm - N/A   Clear
8:53 PM 66.0 °F 55.0 °F 68% 30.14 in 10.0 mi West 3.5 mph - N/A   Clear
9:53 PM 63.0 °F 55.0 °F 75% 30.15 in 10.0 mi Calm Calm - N/A   Clear
10:53 PM 57.0 °F 52.0 °F 83% 30.17 in 10.0 mi Calm Calm - N/A   Clear
11:53 PM 57.9 °F 52.0 °F 81% 30.17 in 10.0 mi NE 3.5 mph - N/A   Clear